Time,TemperatureF,DewpointF,PressureIn,WindDirection,WindDirectionDegrees,WindSpeedMPH,WindSpeedGustMPH,Humidity,HourlyPrecipIn,Conditions,Clouds,dailyrainin,SoftwareType,DateUTC
2013-02-27 00:01:00,43.0,40.0,30.20,SSE,166,12.0,19.0,88,0.00,,,0.00,,2013-02-27 08:01:00,
2013-02-27 00:11:00,43.0,40.0,30.20,SSE,166,12.0,19.0,88,0.00,,,0.00,,2013-02-27 08:11:00,
2013-02-27 00:21:00,42.0,39.0,30.22,South,179,10.0,15.0,89,0.00,,,0.00,,2013-02-27 08:21:00,
2013-02-27 00:31:00,42.0,40.0,30.21,South,175,3.0,11.0,91,0.02,,,0.02,,2013-02-27 08:31:00,
2013-02-27 00:41:00,42.0,40.0,30.21,South,175,3.0,11.0,91,0.02,,,0.02,,2013-02-27 08:41:00,
2013-02-27 00:52:00,41.0,39.0,30.21,South,172,2.0,5.0,91,0.02,,,0.02,,2013-02-27 08:52:00,
2013-02-27 01:01:00,41.0,39.0,30.22,South,182,2.0,5.0,91,0.02,,,0.02,,2013-02-27 09:01:00,
2013-02-27 01:11:00,41.0,39.0,30.22,South,182,2.0,5.0,91,0.02,,,0.02,,2013-02-27 09:11:00,
2013-02-27 01:21:00,40.0,38.0,30.22,South,172,2.0,5.0,91,0.02,,,0.02,,2013-02-27 09:21:00,
2013-02-27 01:31:00,41.0,39.0,30.23,South,171,3.0,5.0,92,0.00,,,0.02,,2013-02-27 09:31:00,
2013-02-27 01:41:00,41.0,39.0,30.23,South,171,3.0,5.0,92,0.00,,,0.02,,2013-02-27 09:41:00,
2013-02-27 01:52:00,41.0,39.0,30.24,South,184,1.0,7.0,92,0.00,,,0.02,,2013-02-27 09:52:00,
2013-02-27 02:01:00,41.0,39.0,30.24,South,184,1.0,7.0,92,0.00,,,0.02,,2013-02-27 10:01:00,
2013-02-27 02:12:00,41.0,39.0,30.24,South,184,1.0,7.0,92,0.00,,,0.02,,2013-02-27 10:12:00,
2013-02-27 02:21:00,41.0,39.0,30.24,South,183,2.0,3.0,92,0.00,,,0.02,,2013-02-27 10:21:00,
2013-02-27 02:31:00,41.0,39.0,30.24,South,186,5.0,8.0,93,0.00,,,0.02,,2013-02-27 10:31:00,
2013-02-27 02:42:00,41.0,39.0,30.24,South,186,5.0,8.0,93,0.00,,,0.02,,2013-02-27 10:42:00,
2013-02-27 02:52:00,41.0,39.0,30.24,South,182,4.0,9.0,93,0.00,,,0.02,,2013-02-27 10:52:00,
2013-02-27 03:01:00,41.0,39.0,30.25,South,178,3.0,6.0,92,0.00,,,0.02,,2013-02-27 11:01:00,
2013-02-27 03:11:00,41.0,39.0,30.25,South,178,3.0,6.0,92,0.00,,,0.02,,2013-02-27 11:11:00,
2013-02-27 03:21:00,41.0,39.0,30.25,South,176,6.0,10.0,92,0.00,,,0.02,,2013-02-27 11:21:00,
2013-02-27 03:31:00,41.0,39.0,30.25,South,178,6.0,8.0,92,0.00,,,0.02,,2013-02-27 11:31:00,
2013-02-27 03:41:00,41.0,39.0,30.25,South,178,6.0,8.0,92,0.00,,,0.02,,2013-02-27 11:41:00,
2013-02-27 03:52:00,41.0,39.0,30.26,South,187,2.0,5.0,91,0.00,,,0.02,,2013-02-27 11:52:00,
2013-02-27 04:01:00,41.0,39.0,30.26,South,181,1.0,5.0,91,0.00,,,0.02,,2013-02-27 12:01:00,
2013-02-27 04:12:00,41.0,39.0,30.26,South,181,1.0,5.0,91,0.00,,,0.02,,2013-02-27 12:12:00,
2013-02-27 04:21:00,41.0,39.0,30.26,South,181,0.0,3.0,91,0.00,,,0.02,,2013-02-27 12:21:00,
2013-02-27 04:32:00,41.0,38.0,30.27,South,181,0.0,2.0,90,0.00,,,0.02,,2013-02-27 12:32:00,
2013-02-27 04:41:00,41.0,38.0,30.27,South,181,0.0,2.0,90,0.00,,,0.02,,2013-02-27 12:41:00,
2013-02-27 04:52:00,41.0,38.0,30.27,South,181,0.0,2.0,90,0.00,,,0.02,,2013-02-27 12:52:00,
2013-02-27 05:01:00,41.0,38.0,30.28,South,181,1.0,3.0,90,0.00,,,0.02,,2013-02-27 13:01:00,
2013-02-27 05:11:00,41.0,38.0,30.28,South,181,1.0,3.0,90,0.00,,,0.02,,2013-02-27 13:11:00,
2013-02-27 05:21:00,41.0,39.0,30.28,South,181,0.0,3.0,91,0.00,,,0.02,,2013-02-27 13:21:00,
2013-02-27 05:31:00,41.0,39.0,30.29,South,181,0.0,1.0,91,0.00,,,0.02,,2013-02-27 13:31:00,
2013-02-27 05:42:00,41.0,39.0,30.29,South,181,0.0,1.0,91,0.00,,,0.02,,2013-02-27 13:42:00,
2013-02-27 05:52:00,41.0,39.0,30.29,South,181,2.0,4.0,92,0.00,,,0.02,,2013-02-27 13:52:00,
2013-02-27 06:02:00,41.0,39.0,30.30,South,180,3.0,5.0,92,0.00,,,0.02,,2013-02-27 14:02:00,
2013-02-27 06:11:00,41.0,39.0,30.30,South,180,3.0,5.0,92,0.00,,,0.02,,2013-02-27 14:11:00,
2013-02-27 06:21:00,41.0,39.0,30.31,South,179,2.0,5.0,92,0.00,,,0.02,,2013-02-27 14:21:00,
2013-02-27 06:31:00,42.0,40.0,30.31,South,178,1.0,5.0,92,0.00,,,0.02,,2013-02-27 14:31:00,
2013-02-27 06:42:00,42.0,40.0,30.31,South,178,1.0,5.0,92,0.00,,,0.02,,2013-02-27 14:42:00,
2013-02-27 06:52:00,42.0,40.0,30.31,South,178,0.0,3.0,92,0.00,,,0.02,,2013-02-27 14:52:00,
2013-02-27 07:02:00,41.0,39.0,30.31,South,178,2.0,4.0,92,0.00,,,0.02,,2013-02-27 15:02:00,
2013-02-27 07:12:00,41.0,39.0,30.31,South,178,2.0,4.0,92,0.00,,,0.02,,2013-02-27 15:12:00,
2013-02-27 07:21:00,41.0,39.0,30.31,South,178,2.0,4.0,92,0.00,,,0.02,,2013-02-27 15:21:00,
2013-02-27 07:32:00,41.0,39.0,30.32,South,175,2.0,6.0,92,0.00,,,0.02,,2013-02-27 15:32:00,
2013-02-27 07:42:00,41.0,39.0,30.32,South,175,2.0,6.0,92,0.00,,,0.02,,2013-02-27 15:42:00,
2013-02-27 07:51:00,41.0,39.0,30.32,South,175,1.0,4.0,92,0.00,,,0.02,,2013-02-27 15:51:00,
2013-02-27 08:01:00,41.0,39.0,30.32,SSE,167,2.0,6.0,92,0.00,,,0.02,,2013-02-27 16:01:00,
2013-02-27 08:11:00,41.0,39.0,30.32,SSE,167,2.0,6.0,92,0.00,,,0.02,,2013-02-27 16:11:00,
2013-02-27 08:21:00,41.0,39.0,30.32,South,169,2.0,5.0,92,0.00,,,0.02,,2013-02-27 16:21:00,
2013-02-27 08:32:00,42.0,40.0,30.33,South,187,4.0,6.0,93,0.00,,,0.02,,2013-02-27 16:32:00,
2013-02-27 08:42:00,42.0,40.0,30.33,South,187,4.0,6.0,93,0.00,,,0.02,,2013-02-27 16:42:00,
2013-02-27 08:51:00,42.0,40.0,30.32,SW,223,6.0,9.0,92,0.00,,,0.02,,2013-02-27 16:51:00,
2013-02-27 09:01:00,42.0,40.0,30.32,South,185,4.0,8.0,91,0.00,,,0.02,,2013-02-27 17:01:00,
2013-02-27 09:11:00,42.0,40.0,30.32,South,185,4.0,8.0,91,0.00,,,0.02,,2013-02-27 17:11:00,
2013-02-27 09:21:00,42.0,40.0,30.32,South,175,4.0,8.0,91,0.00,,,0.02,,2013-02-27 17:21:00,
2013-02-27 09:32:00,42.0,39.0,30.32,South,177,4.0,10.0,90,0.00,,,0.02,,2013-02-27 17:32:00,
2013-02-27 09:41:00,42.0,39.0,30.32,South,177,4.0,10.0,90,0.00,,,0.02,,2013-02-27 17:41:00,
2013-02-27 09:52:00,43.0,40.0,30.32,South,175,7.0,12.0,89,0.00,,,0.02,,2013-02-27 17:52:00,
2013-02-27 10:01:00,43.0,40.0,30.31,South,186,7.0,12.0,88,0.00,,,0.02,,2013-02-27 18:01:00,
2013-02-27 10:11:00,43.0,40.0,30.31,South,186,7.0,12.0,88,0.00,,,0.02,,2013-02-27 18:11:00,
2013-02-27 10:21:00,44.0,41.0,30.32,South,182,4.0,10.0,88,0.00,,,0.02,,2013-02-27 18:21:00,
2013-02-27 10:31:00,45.0,40.0,30.31,South,184,4.0,9.0,84,0.00,,,0.02,,2013-02-27 18:31:00,
2013-02-27 10:42:00,45.0,40.0,30.31,South,184,4.0,9.0,84,0.00,,,0.02,,2013-02-27 18:42:00,
2013-02-27 10:51:00,47.0,41.0,30.32,South,180,9.0,13.0,81,0.00,,,0.02,,2013-02-27 18:51:00,
2013-02-27 11:01:00,46.0,41.0,30.32,SSW,194,3.0,11.0,81,0.00,,,0.02,,2013-02-27 19:01:00,
2013-02-27 11:11:00,46.0,41.0,30.32,SSW,194,3.0,11.0,81,0.00,,,0.02,,2013-02-27 19:11:00,
2013-02-27 11:21:00,47.0,41.0,30.33,South,182,7.0,10.0,81,0.00,,,0.02,,2013-02-27 19:21:00,
2013-02-27 11:32:00,48.0,41.0,30.33,South,174,8.0,11.0,78,0.00,,,0.02,,2013-02-27 19:32:00,
2013-02-27 11:42:00,48.0,41.0,30.33,South,174,8.0,11.0,78,0.00,,,0.02,,2013-02-27 19:42:00,
2013-02-27 11:51:00,48.0,41.0,30.34,South,181,9.0,11.0,77,0.00,,,0.02,,2013-02-27 19:51:00,
2013-02-27 12:01:00,48.0,40.0,30.33,South,181,6.0,12.0,75,0.00,,,0.02,,2013-02-27 20:01:00,
2013-02-27 12:11:00,48.0,40.0,30.33,South,181,6.0,12.0,75,0.00,,,0.02,,2013-02-27 20:11:00,
2013-02-27 12:21:00,48.0,41.0,30.33,SSW,197,6.0,10.0,77,0.00,,,0.02,,2013-02-27 20:21:00,
2013-02-27 12:31:00,49.0,42.0,30.34,South,191,5.0,7.0,76,0.00,,,0.02,,2013-02-27 20:31:00,
2013-02-27 12:41:00,49.0,42.0,30.34,South,191,5.0,7.0,76,0.00,,,0.02,,2013-02-27 20:41:00,
2013-02-27 12:52:00,50.0,42.0,30.33,South,190,6.0,9.0,74,0.00,,,0.02,,2013-02-27 20:52:00,
2013-02-27 13:01:00,50.0,42.0,30.31,South,182,8.0,11.0,73,0.00,,,0.02,,2013-02-27 21:01:00,
2013-02-27 13:11:00,50.0,42.0,30.31,South,182,8.0,11.0,73,0.00,,,0.02,,2013-02-27 21:11:00,
2013-02-27 13:21:00,48.0,40.0,30.31,South,185,7.0,10.0,75,0.00,,,0.02,,2013-02-27 21:21:00,
2013-02-27 13:31:00,48.0,39.0,30.31,South,184,4.0,7.0,72,0.00,,,0.02,,2013-02-27 21:31:00,
2013-02-27 13:42:00,48.0,39.0,30.31,South,184,4.0,7.0,72,0.00,,,0.02,,2013-02-27 21:42:00,
2013-02-27 13:51:00,48.0,40.0,30.30,South,186,5.0,7.0,74,0.00,,,0.02,,2013-02-27 21:51:00,
2013-02-27 14:01:00,48.0,41.0,30.30,South,186,5.0,7.0,76,0.00,,,0.02,,2013-02-27 22:01:00,
2013-02-27 14:11:00,48.0,41.0,30.30,South,186,5.0,7.0,76,0.00,,,0.02,,2013-02-27 22:11:00,
2013-02-27 14:21:00,47.0,39.0,30.30,South,180,3.0,7.0,75,0.00,,,0.02,,2013-02-27 22:21:00,
2013-02-27 14:31:00,47.0,40.0,30.31,South,180,2.0,4.0,76,0.00,,,0.02,,2013-02-27 22:31:00,
2013-02-27 14:41:00,47.0,40.0,30.31,South,180,2.0,4.0,76,0.00,,,0.02,,2013-02-27 22:41:00,
2013-02-27 14:51:00,47.0,40.0,30.30,South,180,2.0,3.0,76,0.00,,,0.02,,2013-02-27 22:51:00,
2013-02-27 15:01:00,47.0,40.0,30.30,South,180,0.0,2.0,77,0.00,,,0.02,,2013-02-27 23:01:00,
2013-02-27 15:11:00,47.0,40.0,30.30,South,180,0.0,2.0,77,0.00,,,0.02,,2013-02-27 23:11:00,
2013-02-27 15:21:00,47.0,39.0,30.31,South,180,0.0,0.0,75,0.00,,,0.02,,2013-02-27 23:21:00,
2013-02-27 15:31:00,46.0,39.0,30.30,South,180,0.0,1.0,76,0.00,,,0.02,,2013-02-27 23:31:00,
2013-02-27 15:42:00,46.0,39.0,30.30,South,180,0.0,1.0,76,0.00,,,0.02,,2013-02-27 23:42:00,
2013-02-27 15:52:00,46.0,40.0,30.30,South,180,0.0,1.0,78,0.00,,,0.02,,2013-02-27 23:52:00,
2013-02-27 16:01:00,45.0,39.0,30.29,South,180,1.0,3.0,79,0.00,,,0.02,,2013-02-28 00:01:00,
2013-02-27 16:11:00,45.0,39.0,30.29,South,180,1.0,3.0,79,0.00,,,0.02,,2013-02-28 00:11:00,
2013-02-27 16:21:00,45.0,40.0,30.29,South,180,0.0,1.0,81,0.00,,,0.02,,2013-02-28 00:21:00,
2013-02-27 16:31:00,45.0,40.0,30.29,South,180,0.0,0.0,81,0.00,,,0.02,,2013-02-28 00:31:00,
2013-02-27 16:42:00,45.0,40.0,30.29,South,180,0.0,0.0,81,0.00,,,0.02,,2013-02-28 00:42:00,
2013-02-27 16:51:00,45.0,40.0,30.29,South,180,0.0,1.0,81,0.00,,,0.02,,2013-02-28 00:51:00,
2013-02-27 17:01:00,45.0,40.0,30.29,South,180,1.0,3.0,82,0.00,,,0.02,,2013-02-28 01:01:00,
2013-02-27 17:11:00,45.0,40.0,30.29,South,180,1.0,3.0,82,0.00,,,0.02,,2013-02-28 01:11:00,
2013-02-27 17:21:00,45.0,40.0,30.30,South,180,2.0,3.0,81,0.00,,,0.02,,2013-02-28 01:21:00,
2013-02-27 17:31:00,45.0,40.0,30.29,South,180,0.0,2.0,83,0.00,,,0.02,,2013-02-28 01:31:00,
2013-02-27 17:41:00,45.0,40.0,30.29,South,180,0.0,2.0,83,0.00,,,0.02,,2013-02-28 01:41:00,
2013-02-27 17:51:00,44.0,39.0,30.30,South,180,0.0,3.0,84,0.00,,,0.02,,2013-02-28 01:51:00,
2013-02-27 18:01:00,44.0,40.0,30.29,South,180,1.0,2.0,85,0.00,,,0.02,,2013-02-28 02:01:00,
2013-02-27 18:11:00,44.0,40.0,30.29,South,180,1.0,2.0,85,0.00,,,0.02,,2013-02-28 02:11:00,
2013-02-27 18:21:00,44.0,40.0,30.29,South,180,1.0,2.0,85,0.00,,,0.02,,2013-02-28 02:21:00,
2013-02-27 18:31:00,43.0,39.0,30.30,South,180,0.0,2.0,87,0.00,,,0.02,,2013-02-28 02:31:00,
2013-02-27 18:42:00,43.0,39.0,30.30,South,180,0.0,2.0,87,0.00,,,0.02,,2013-02-28 02:42:00,
2013-02-27 18:52:00,43.0,39.0,30.30,South,180,0.0,2.0,87,0.00,,,0.02,,2013-02-28 02:52:00,
2013-02-27 19:01:00,43.0,39.0,30.30,South,180,0.0,1.0,87,0.00,,,0.02,,2013-02-28 03:01:00,
2013-02-27 19:11:00,43.0,39.0,30.30,South,180,0.0,1.0,87,0.00,,,0.02,,2013-02-28 03:11:00,
2013-02-27 19:21:00,42.0,38.0,30.29,South,180,1.0,3.0,87,0.00,,,0.02,,2013-02-28 03:21:00,
2013-02-27 19:31:00,42.0,38.0,30.31,South,180,1.0,4.0,87,0.00,,,0.02,,2013-02-28 03:31:00,
2013-02-27 19:41:00,42.0,38.0,30.31,South,180,1.0,4.0,87,0.00,,,0.02,,2013-02-28 03:41:00,
2013-02-27 19:51:00,41.0,38.0,30.32,South,180,0.0,2.0,88,0.00,,,0.02,,2013-02-28 03:51:00,
2013-02-27 20:01:00,41.0,38.0,30.32,South,180,0.0,2.0,89,0.00,,,0.02,,2013-02-28 04:01:00,
2013-02-27 20:11:00,41.0,38.0,30.32,South,180,0.0,2.0,89,0.00,,,0.02,,2013-02-28 04:11:00,
2013-02-27 20:21:00,41.0,38.0,30.32,South,180,0.0,3.0,89,0.00,,,0.02,,2013-02-28 04:21:00,
2013-02-27 20:31:00,41.0,38.0,30.31,South,180,0.0,2.0,89,0.00,,,0.02,,2013-02-28 04:31:00,
2013-02-27 20:41:00,41.0,38.0,30.31,South,180,0.0,2.0,89,0.00,,,0.02,,2013-02-28 04:41:00,
2013-02-27 20:51:00,40.0,37.0,30.30,South,180,0.0,2.0,89,0.00,,,0.02,,2013-02-28 04:51:00,
2013-02-27 21:01:00,40.0,37.0,30.30,South,180,0.0,2.0,89,0.00,,,0.02,,2013-02-28 05:01:00,
2013-02-27 21:11:00,40.0,37.0,30.30,South,180,0.0,2.0,89,0.00,,,0.02,,2013-02-28 05:11:00,
2013-02-27 21:22:00,42.0,39.0,30.29,ENE,68,1.0,4.0,89,0.00,,,0.02,,2013-02-28 05:22:00,
2013-02-27 21:31:00,42.0,39.0,30.30,North,5,2.0,3.0,88,0.00,,,0.02,,2013-02-28 05:31:00,
2013-02-27 21:42:00,42.0,39.0,30.30,North,5,2.0,3.0,88,0.00,,,0.02,,2013-02-28 05:42:00,
2013-02-27 21:52:00,42.0,38.0,30.31,North,360,2.0,5.0,87,0.00,,,0.02,,2013-02-28 05:52:00,
2013-02-27 22:01:00,42.0,38.0,30.31,NE,43,1.0,4.0,86,0.00,,,0.02,,2013-02-28 06:01:00,
2013-02-27 22:11:00,42.0,38.0,30.31,NE,43,1.0,4.0,86,0.00,,,0.02,,2013-02-28 06:11:00,
2013-02-27 22:21:00,42.0,38.0,30.31,NNE,19,3.0,6.0,86,0.00,,,0.02,,2013-02-28 06:21:00,
2013-02-27 22:32:00,42.0,38.0,30.31,North,350,1.0,3.0,85,0.00,,,0.02,,2013-02-28 06:32:00,
2013-02-27 22:41:00,42.0,38.0,30.31,North,350,1.0,3.0,85,0.00,,,0.02,,2013-02-28 06:41:00,
2013-02-27 22:51:00,42.0,38.0,30.32,North,350,0.0,2.0,86,0.00,,,0.02,,2013-02-28 06:51:00,
2013-02-27 23:01:00,42.0,38.0,30.31,North,5,1.0,5.0,86,0.00,,,0.02,,2013-02-28 07:01:00,
2013-02-27 23:11:00,42.0,38.0,30.31,North,5,1.0,5.0,86,0.00,,,0.02,,2013-02-28 07:11:00,
2013-02-27 23:21:00,42.0,38.0,30.31,North,355,2.0,5.0,87,0.00,,,0.02,,2013-02-28 07:21:00,
2013-02-27 23:31:00,42.0,39.0,30.30,North,351,2.0,6.0,89,0.00,,,0.02,,2013-02-28 07:31:00,
2013-02-27 23:41:00,42.0,39.0,30.30,North,351,2.0,6.0,89,0.00,,,0.02,,2013-02-28 07:41:00,
2013-02-27 23:51:00,42.0,39.0,30.31,North,360,1.0,5.0,89,0.00,,,0.02,,2013-02-28 07:51:00,